Regional Weather Roundup
Issued by NWS Goodland, KS

Home | Current Version | Previous Version | Graphics & Text | Print | Product List | Glossary On
Versions: 1 2 3 4 5 6 7 8 9 10 11 12 13 14 15 16 17 18 19 20 21 22 23 24 25 26 27 28 29 30 31 32 33 34 35 36 37 38 39 40 41 42 43 44 45 46 47 48 49 50
000
ASUS43 KGLD 260208
RWRGLD

GOODLAND FORECAST AREA HOURLY WEATHER ROUNDUP
NATIONAL WEATHER SERVICE GOODLAND KS
800 PM MDT SAT APR 25 2015

...OFFICIAL OBSERVATIONS...

CITY           SKY/WX    TMP DP  RH WIND       PRES   REMARKS
GOODLAND KS    CLEAR     58  46  64 E14       29.72R
HILL CITY KS   MOCLDY    55  50  83 E15       29.76R
IMPERIAL NEB   MOCLDY    57  49  74 E15       29.75R
MCCOOK NEB     PTCLDY    56  48  74 E14       29.75R
AKRON CO       MOCLDY    59  39  47 SE7       29.72R
BURLINGTON CO  PTCLDY    57  42  57 E9        29.72R
LIMON CO       CLOUDY    60  31  33 SE16      29.74R
$$

...UNOFFICIAL OBSERVATIONS...

CITY           SKY/WX    TMP DP  RH WIND       PRES   REMARKS
COLBY KS       CLEAR     57  55  94 E15       29.76R
GOVE KS          N/A     58  32  37 MISG        N/A
LENORA KS        N/A     52  32  46 MISG        N/A
NORTON KS      CLOUDY    54  46  76 NE10      29.76R
SHARON SPRINGS   N/A     61  49  63 E8          N/A
TRIBUNE KS     CLEAR     61  52  72 E9        29.73R
KIT CARSON CO    N/A     60  41  49 MISG        N/A
YUMA CO          N/A     60  41  50 E10         N/A
$$


USA.gov is the U.S. government's official web portal to all federal, state and local government web resources and services.